Torna al catalogo

CZ-6A DEB

AttivoSSO
NORAD 56623·DEBRIS·🇨🇳 China

Lanciato Nov 11, 2022 da Taiyuan Satellite Launch Center

Loading…

Prossimi Passaggi (prossime 24 ore)

TLE

AggiornatoSource: Space-Track

Epoca: Sep 13, 2026, 03:36 UTC

1 56623U 22151AEX 26256.15013141  .00000954  00000-0  64958-3 0  9993
2 56623  98.9046 231.0356 0102572 148.9313 211.7972 13.99775108173545

Traccia CZ-6A DEB in tempo reale con AllMySat

Download on the App Store